Denver, CO

3:46 PM MST on February 22, 2018 (GMT -0700)
Front Range

Weather History for KFTG - November, 2012

Change the Weather History Date:

Thursday, November 15, 2012

  Actual Average (KBKF) Record (KBKF)
Temperature  
Mean Temperature 38 °F -  
Max Temperature 46 °F 50 °F 75 °F (2016)
Min Temperature 30 °F 26 °F 3 °F (1997)
Degree Days  
Heating Degree Days 27    
Moisture  
Dew Point 29 °F    
Average Humidity 82    
Maximum Humidity 93    
Minimum Humidity 53    
Precipitation  
Precipitation 0.00 in - - ()
Sea Level Pressure  
Sea Level Pressure 30.31 in    
Wind  
Wind Speed 5 mph (SW)    
Max Wind Speed 9 mph    
Max Gust Speed -    
Visibility 10 miles    
Events      
Averages and records for this station are not official NWS values.
T = Trace of Precipitation, MM = Missing Value Source: NWS Daily Summary

Daily Weather History Graph

Daily Weather History Graph

Search for Another Location

Airport or City:

Trip Planner

Search our weather history database for the weather conditions in past years. The results will help you decide how hot, cold, wet, or windy it might be!

Date:

Astronomy

Nov. 15, 2012 Rise Set
Actual Time 6:43 AM MST 4:41 PM MST
Civil Twilight 6:14 AM MST 5:10 PM MST
Nautical Twilight 5:41 AM MST 5:43 PM MST
Astronomical Twilight 5:09 AM MST 6:15 PM MST
Moon 8:41 AM MST (11/15) 6:36 PM MST (11/15)
Length of Visible Light 10h 56m
Length of Day
9h 58m
Waxing Crescent, 5% of the Moon is Illuminated
Nov 15
Waxing Crescent
Nov 20
First Quarter
Nov 28
Full
Dec 6
Last Quarter
Dec 13
New

Hourly Weather History & Observations

Time (MST) Temp. Windchill Dew Point Humidity Pressure Visibility Wind Dir Wind Speed Gust Speed Precip Events Conditions
12:18 AM 33.8 °F 29.6 °F 28.4 °F 81% 30.20 in 10.0 mi West 4.6 mph - N/A   Clear
12:39 AM 30.2 °F 21.9 °F 26.6 °F 86% 30.20 in 10.0 mi WSW 9.2 mph - N/A   Clear
12:59 AM 32.0 °F 26.4 °F 28.4 °F 87% 30.20 in 10.0 mi West 5.8 mph - N/A   Clear
1:19 AM 32.0 °F 28.7 °F 28.4 °F 87% 30.22 in 10.0 mi WNW 3.5 mph - N/A   Scattered Clouds
1:39 AM 30.2 °F 26.7 °F 28.4 °F 93% 30.23 in 10.0 mi SSW 3.5 mph - N/A   Mostly Cloudy
1:58 AM 32.0 °F 28.7 °F 28.4 °F 87% 30.23 in 10.0 mi SSW 3.5 mph - N/A   Scattered Clouds
2:19 AM 32.0 °F 28.7 °F 26.6 °F 80% 30.25 in 10.0 mi South 3.5 mph - N/A   Clear
2:39 AM 30.2 °F 25.4 °F 26.6 °F 86% 30.26 in 10.0 mi SSW 4.6 mph - N/A   Scattered Clouds
2:59 AM 32.0 °F 27.5 °F 28.4 °F 87% 30.26 in 10.0 mi SSW 4.6 mph - N/A   Overcast
3:19 AM 33.8 °F 29.6 °F 28.4 °F 81% 30.27 in 10.0 mi SSW 4.6 mph - N/A   Overcast
3:39 AM 32.0 °F 27.5 °F 28.4 °F 87% 30.27 in 10.0 mi SSW 4.6 mph - N/A   Mostly Cloudy
3:59 AM 33.8 °F 30.8 °F 28.4 °F 81% 30.27 in 10.0 mi SSW 3.5 mph - N/A   Mostly Cloudy
4:19 AM 33.8 °F 29.6 °F 28.4 °F 81% 30.29 in 10.0 mi SW 4.6 mph - N/A   Mostly Cloudy
4:40 AM 33.8 °F - 30.2 °F 87% 30.30 in 10.0 mi Calm Calm - N/A   Overcast
5:00 AM 35.6 °F 29.9 °F 30.2 °F 81% 30.31 in 10.0 mi NW 6.9 mph - N/A   Overcast
5:20 AM 35.6 °F 29.2 °F 32.0 °F 87% 30.32 in 10.0 mi NNW 8.1 mph - N/A   Overcast
5:40 AM 35.6 °F 29.2 °F 32.0 °F 87% 30.33 in 10.0 mi NW 8.1 mph - N/A   Overcast
5:59 AM 35.6 °F 30.7 °F 32.0 °F 87% 30.33 in 10.0 mi NW 5.8 mph - N/A   Overcast
6:20 AM 35.6 °F 30.7 °F 32.0 °F 87% 30.34 in 10.0 mi NW 5.8 mph - N/A   Overcast
6:40 AM 35.6 °F 29.9 °F 32.0 °F 87% 30.36 in 10.0 mi NW 6.9 mph - N/A   Overcast
6:56 AM 35.6 °F 29.9 °F 32.0 °F 87% 30.36 in 10.0 mi NW 6.9 mph - N/A   Overcast
7:47 AM 35.6 °F 31.7 °F 32.0 °F 87% 30.39 in 40.0 mi West 4.6 mph - N/A   Overcast
8:47 AM 39.2 °F 35.9 °F 32.0 °F 75% 30.40 in 40.0 mi NW 4.6 mph - N/A   Overcast
9:47 AM 39.2 °F 33.6 °F 32.0 °F 75% 30.42 in 40.0 mi WNW 8.1 mph - N/A   Mostly Cloudy
10:55 AM 42.8 °F - 30.2 °F 61% 30.40 in 40.0 mi Calm Calm - N/A   Mostly Cloudy
1:50 PM 46.4 °F 45.2 °F 30.2 °F 53% 30.34 in 40.0 mi ENE 3.5 mph - N/A   Mostly Cloudy
3:47 PM 46.4 °F 41.9 °F 30.2 °F 53% 30.34 in 40.0 mi ESE 9.2 mph - N/A   Scattered Clouds
4:47 PM 39.2 °F 35.0 °F 28.4 °F 65% 30.34 in 40.0 mi ESE 5.8 mph - N/A   Partly Cloudy
5:47 PM 35.6 °F 31.7 °F 28.4 °F 75% 30.35 in 10.0 mi SE 4.6 mph - N/A   Clear
6:47 PM 32.0 °F 26.4 °F 26.6 °F 80% 30.35 in 10.0 mi SSE 5.8 mph - N/A   Clear
7:47 PM 32.0 °F 26.4 °F 28.4 °F 87% 30.35 in 10.0 mi SSE 5.8 mph - N/A   Clear
8:50 PM 32.0 °F 24.8 °F 28.4 °F 87% 30.34 in 10.0 mi SSE 8.1 mph - N/A   Clear
9:19 PM 30.2 °F 22.6 °F 26.6 °F 86% 30.34 in 10.0 mi SSE 8.1 mph - N/A   Clear
9:39 PM 32.0 °F 26.4 °F 28.4 °F 87% 30.34 in 10.0 mi SSE 5.8 mph - N/A   Clear
9:59 PM 32.0 °F 26.4 °F 28.4 °F 87% 30.33 in 10.0 mi South 5.8 mph - N/A   Clear
10:19 PM 32.0 °F 24.2 °F 28.4 °F 87% 30.33 in 10.0 mi South 9.2 mph - N/A   Clear
10:38 PM 32.0 °F 24.8 °F 28.4 °F 87% 30.33 in 10.0 mi South 8.1 mph - N/A   Clear
10:59 PM 32.0 °F 25.6 °F 28.4 °F 87% 30.32 in 10.0 mi South 6.9 mph - N/A   Clear
11:19 PM 32.0 °F 26.4 °F 28.4 °F 87% 30.31 in 10.0 mi SSW 5.8 mph - N/A   Clear
11:39 PM 32.0 °F 27.5 °F 28.4 °F 87% 30.30 in 10.0 mi SSW 4.6 mph - N/A   Clear
11:59 PM 32.0 °F 26.4 °F 26.6 °F 80% 30.30 in 10.0 mi SSW 5.8 mph - N/A   Clear